Location: Izdebno
(52.6670°N, 16.2170°E)
Time: 10:55:40
(UTC+01:00)

Transit 2A - Pass Details

Date: 31 January 2023
Orbit: 591 x 964 km, 66.7° (Epoch: 21 March)

Event Time Altitude Azimuth Distance (km) Brightness Sun altitude
Rises 02:39:15 0° 318° (NW) 3,447 - -44.2°
Reaches altitude 10° 02:41:42 10° 315° (NW) 2,555 - -43.9°
Maximum altitude 02:47:31 54° 239° (WSW) 1,118 - -43.1°
Drops below altitude 10° 02:53:39 10° 164° (SSE) 2,687 - -42.3°
Sets 02:56:18 0° 160° (SSE) 3,638 - -42.0°
